GW3806 Weather Reports


Display with metric or nautical units.
time (UTC)temp
F
wind
direction
speed
MPH
gust
MPH
rain 1hr
in
rain 24hr
in
rain mn
in
humidity
%
barometer
mb
20260904112250 63 148 3.0 10.0 0.00 0.00 0.00 36 1011.5
20260904111746 64 201 2.0 15.0 0.00 0.00 0.00 35 1011.7
20260904111242 64 147 9.0 14.0 0.00 0.00 0.00 35 1011.5
20260904110737 64 145 6.0 9.0 0.00 0.00 0.00 36 1011.4
20260904110236 64 134 9.0 12.0 0.00 0.00 0.00 35 1011.1
20260904105732 65 143 6.0 10.0 0.00 0.00 0.00 34 1011.3
20260904105226 65 150 4.0 15.0 0.00 0.00 0.00 34 1011.3
20260904104716 65 150 16.0 16.0 0.00 0.00 0.00 34 1010.9
20260904104211 64 146 9.0 11.0 0.00 0.00 0.00 35 1011.3
20260904103708 65 134 5.0 15.0 0.00 0.00 0.00 34 1011.1
20260904103202 65 181 5.0 11.0 0.00 0.00 0.00 34 1011.0
20260904102658 65 137 6.0 10.0 0.00 0.00 0.00 34 1011.3
20260904102154 65 144 5.0 12.0 0.00 0.00 0.00 34 1011.0
20260904101650 66 143 12.0 12.0 0.00 0.00 0.00 33 1011.0
20260904101146 66 141 8.0 11.0 0.00 0.00 0.00 33 1010.9
20260904100641 66 139 6.0 16.0 0.00 0.00 0.00 33 1010.9
20260904100136 66 158 8.0 12.0 0.00 0.00 0.00 33 1011.1
20260904095631 65 149 5.0 6.0 0.00 0.00 0.00 34 1010.9
20260904095125 66 142 4.0 9.0 0.00 0.00 0.00 33 1010.8
20260904094620 66 139 13.0 15.0 0.00 0.00 0.00 33 1010.8
20260904094116 66 155 14.0 14.0 0.00 0.00 0.00 33 1010.8
20260904093613 66 154 7.0 12.0 0.00 0.00 0.00 33 1010.9
20260904093107 67 165 4.0 12.0 0.00 0.00 0.00 33 1010.8
20260904092603 67 142 8.0 18.0 0.00 0.00 0.00 32 1010.8
20260904092059 67 130 3.0 11.0 0.00 0.00 0.00 33 1010.7
20260904091555 66 145 4.0 13.0 0.00 0.00 0.00 33 1010.8
20260904091054 66 137 4.0 8.0 0.00 0.00 0.00 34 1010.8
20260904090549 65 139 8.0 8.0 0.00 0.00 0.00 35 1010.9
20260904090040 65 130 8.0 8.0 0.00 0.00 0.00 35 1010.8
20260904085540 65 180 1.0 7.0 0.00 0.00 0.00 35 1010.8
20260904085039 66 151 2.0 10.0 0.00 0.00 0.00 33 1010.4
20260904084535 66 161 5.0 7.0 0.00 0.00 0.00 35 1010.8
20260904084031 66 145 4.0 9.0 0.00 0.00 0.00 34 1010.7
20260904083527 66 115 7.0 9.0 0.00 0.00 0.00 34 1010.8
20260904083023 66 191 8.0 12.0 0.00 0.00 0.00 33 1010.7
20260904082518 66 125 5.0 9.0 0.00 0.00 0.00 34 1010.7
20260904082013 65 140 6.0 9.0 0.00 0.00 0.00 35 1010.7
20260904081508 63 130 0.0 6.0 0.00 0.00 0.00 37 1010.8
20260904081004 61 162 2.0 7.0 0.00 0.00 0.00 40 1010.7
20260904080500 57 30 4.0 4.0 0.00 0.00 0.00 47 1010.8
20260904075955 56 358 3.0 3.0 0.00 0.00 0.00 47 1010.9
20260904075451 58 0 2.0 4.0 0.00 0.00 0.00 46 1010.9
20260904074950 61 270 3.0 4.0 0.00 0.00 0.00 41 1011.0
20260904074445 63 216 2.0 2.0 0.00 0.00 0.00 37 1011.1
20260904073940 64 255 0.0 3.0 0.00 0.00 0.00 37 1011.0
20260904073436 65 158 4.0 9.0 0.00 0.00 0.00 36 1011.0
20260904072931 65 113 8.0 10.0 0.00 0.00 0.00 36 1011.1
20260904072427 65 97 4.0 11.0 0.00 0.00 0.00 36 1010.9
20260904071922 64 129 7.0 15.0 0.00 0.00 0.00 36 1011.1
20260904071417 62 121 2.0 7.0 0.00 0.00 0.00 39 1011.1
20260904070912 59 203 0.0 3.0 0.00 0.00 0.00 43 1011.1
20260904070410 59 144 3.0 6.0 0.00 0.00 0.00 42 1011.0
20260904065904 54 342 0.0 2.0 0.00 0.00 0.00 48 1011.3
20260904065401 53 23 2.0 2.0 0.00 0.00 0.00 53 1011.4
20260904064900 53 26 2.0 3.0 0.00 0.00 0.00 54 1011.4
20260904064357 52 18 3.0 3.0 0.00 0.00 0.00 56 1011.3
20260904063852 51 18 1.0 3.0 0.00 0.00 0.00 59 1011.4
20260904063348 51 85 2.0 5.0 0.00 0.00 0.00 59 1011.6
20260904062843 52 81 0.0 4.0 0.00 0.00 0.00 56 1011.6
20260904062339 52 124 2.0 3.0 0.00 0.00 0.00 58 1011.7
20260904061835 52 30 3.0 4.0 0.00 0.00 0.00 57 1011.6
20260904061331 53 281 2.0 2.0 0.00 0.00 0.00 56 1011.6
20260904060827 52 84 3.0 5.0 0.00 0.00 0.00 58 1011.6
20260904060323 53 90 0.0 5.0 0.00 0.00 0.00 56 1011.6
20260904055818 52 85 2.0 4.0 0.00 0.00 0.00 59 1012.0
20260904055313 52 41 2.0 4.0 0.00 0.00 0.00 57 1011.9
20260904054808 51 96 1.0 3.0 0.00 0.00 0.00 61 1011.9
20260904054305 51 40 0.0 3.0 0.00 0.00 0.00 60 1012.0
20260904053800 52 135 3.0 3.0 0.00 0.00 0.00 59 1012.0
20260904053259 52 14 0.0 4.0 0.00 0.00 0.00 60 1012.1
20260904052755 52 127 2.0 4.0 0.00 0.00 0.00 60 1012.2
20260904052251 52 66 2.0 5.0 0.00 0.00 0.00 60 1012.4
20260904051743 52 3 3.0 4.0 0.00 0.00 0.00 60 1012.5
20260904051242 52 4 2.0 3.0 0.00 0.00 0.00 60 1012.6
20260904050738 52 0 2.0 5.0 0.00 0.00 0.00 60 1012.6
20260904050234 52 343 3.0 4.0 0.00 0.00 0.00 60 1012.6
20260904045729 52 16 2.0 6.0 0.00 0.00 0.00 60 1012.5
20260904045224 52 101 2.0 4.0 0.00 0.00 0.00 61 1012.5
20260904044719 51 93 3.0 4.0 0.00 0.00 0.00 62 1012.7
20260904044215 52 82 0.0 5.0 0.00 0.00 0.00 61 1012.8
20260904043711 52 96 1.0 4.0 0.00 0.00 0.00 61 1012.7
20260904043207 52 75 0.0 7.0 0.00 0.00 0.00 61 1012.8
20260904042703 53 58 3.0 7.0 0.00 0.00 0.00 60 1013.0
20260904042159 53 95 3.0 8.0 0.00 0.00 0.00 59 1013.1
20260904041653 51 84 0.0 5.0 0.00 0.00 0.00 62 1013.2
20260904041150 51 117 2.0 6.0 0.00 0.00 0.00 61 1012.8
20260904040645 51 97 4.0 6.0 0.00 0.00 0.00 64 1013.1
20260904040141 52 90 0.0 4.0 0.00 0.00 0.00 60 1013.0
20260904035636 52 90 2.0 4.0 0.00 0.00 0.00 61 1013.0
20260904035131 53 270 0.0 1.0 0.00 0.00 0.00 59 1012.8
20260904034630 54 81 2.0 4.0 0.00 0.00 0.00 57 1012.8
20260904034126 54 83 3.0 4.0 0.00 0.00 0.00 56 1013.0
20260904033621 53 99 3.0 4.0 0.00 0.00 0.00 57 1013.0
20260904033119 53 95 5.0 6.0 0.00 0.00 0.00 61 1013.0
20260904032614 54 83 3.0 5.0 0.00 0.00 0.00 60 1013.0
20260904032113 54 78 1.0 4.0 0.00 0.00 0.00 60 1013.0
20260904031612 53 77 2.0 5.0 0.00 0.00 0.00 61 1013.1
20260904031108 54 90 4.0 4.0 0.00 0.00 0.00 60 1013.0
20260904030604 53 90 2.0 4.0 0.00 0.00 0.00 62 1013.1
20260904030059 54 90 3.0 4.0 0.00 0.00 0.00 60 1013.0
20260904025555 54 84 0.0 3.0 0.00 0.00 0.00 61 1013.2
20260904025050 55 90 1.0 3.0 0.00 0.00 0.00 60 1013.2
20260904024545 60 95 2.0 3.0 0.00 0.00 0.00 47 1013.2
20260904024041 62 95 2.0 6.0 0.00 0.00 0.00 41 1013.1
20260904023537 61 114 3.0 3.0 0.00 0.00 0.00 44 1013.2
20260904023032 60 126 0.0 5.0 0.00 0.00 0.00 46 1013.0
20260904022527 59 90 3.0 4.0 0.00 0.00 0.00 55 1013.2
20260904022024 58 90 3.0 4.0 0.00 0.00 0.00 55 1013.2
20260904021520 57 86 2.0 3.0 0.00 0.00 0.00 59 1013.2
20260904021015 57 90 3.0 4.0 0.00 0.00 0.00 62 1013.3
20260904020514 58 66 0.0 3.0 0.00 0.00 0.00 65 1013.3
20260904020010 60 90 3.0 3.0 0.00 0.00 0.00 61 1013.3
20260904015504 61 157 0.0 2.0 0.00 0.00 0.00 56 1013.3
20260904015002 62 105 2.0 5.0 0.00 0.00 0.00 58 1013.3
20260904014456 64 157 0.0 2.0 0.00 0.00 0.00 46 1013.6
20260904013953 64 237 3.0 3.0 0.00 0.00 0.00 45 1013.3
20260904013448 64 233 3.0 3.0 0.00 0.00 0.00 45 1013.2
20260904012945 64 239 2.0 3.0 0.00 0.00 0.00 45 1013.3
20260904012443 65 212 3.0 4.0 0.00 0.00 0.00 44 1013.3
20260904011933 66 230 3.0 4.0 0.00 0.00 0.00 42 1013.3
20260904011427 67 226 4.0 4.0 0.00 0.00 0.00 41 1013.2
20260904010923 68 243 3.0 3.0 0.00 0.00 0.00 39 1013.3
20260904010419 67 235 2.0 3.0 0.00 0.00 0.00 41 1013.3
20260904005914 67 228 2.0 5.0 0.00 0.00 0.00 40 1013.3
20260904005410 68 222 3.0 5.0 0.00 0.00 0.00 39 1013.3
20260904004904 71 235 4.0 4.0 0.00 0.00 0.00 37 1013.4
20260904004401 69 213 4.0 5.0 0.00 0.00 0.00 38 1013.3
20260904003900 70 225 3.0 5.0 0.00 0.00 0.00 38 1013.2
20260904003357 69 218 3.0 5.0 0.00 0.00 0.00 38 1013.6
20260904002857 67 223 4.0 7.0 0.00 0.00 0.00 39 1013.3
20260904002353 67 258 3.0 5.0 0.00 0.00 0.00 39 1013.3
20260904001852 68 238 3.0 7.0 0.00 0.00 0.00 39 1013.4
20260904001348 68 228 7.0 10.0 0.00 0.00 0.00 37 1013.3
20260904000843 69 217 2.0 5.0 0.00 0.00 0.00 37 1013.4
20260904000342 70 180 3.0 8.0 0.00 0.00 0.00 37 1013.4
20260903235837 71 238 4.0 9.0 0.00 0.00 0.00 36 1013.6
20260903235333 70 221 4.0 10.0 0.00 0.00 0.00 36 1013.6
20260903234832 71 252 3.0 6.0 0.00 0.00 0.00 38 1013.6
20260903234329 67 242 8.0 9.0 0.00 0.00 0.00 39 1013.6
20260903233825 67 236 7.0 10.0 0.00 0.00 0.00 38 1013.4
20260903233320 68 219 5.0 10.0 0.00 0.00 0.00 38 1013.6
20260903232819 68 267 6.0 11.0 0.00 0.00 0.00 36 1013.6
20260903232316 70 236 6.0 12.0 0.00 0.00 0.00 35 1013.7
20260903231814 70 241 9.0 10.0 0.00 0.00 0.00 36 1013.4
20260903231310 70 232 7.0 14.0 0.00 0.00 0.00 35 1013.6
20260903230806 71 182 3.0 8.0 0.00 0.00 0.00 35 1013.8
20260903230300 70 166 5.0 11.0 0.00 0.00 0.00 35 1013.7
20260903225756 71 242 7.0 11.0 0.00 0.00 0.00 36 1013.6
20260903225253 71 220 5.0 13.0 0.00 0.00 0.00 34 1013.6
20260903224749 69 210 3.0 11.0 0.00 0.00 0.00 37 1013.9
20260903224244 68 221 5.0 11.0 0.00 0.00 0.00 38 1014.1
20260903223740 68 246 8.0 9.0 0.00 0.00 0.00 37 1014.1
20260903223237 68 245 2.0 7.0 0.00 0.00 0.00 39 1013.9
20260903222733 67 219 4.0 8.0 0.00 0.00 0.00 38 1014.2
20260903222232 67 227 5.0 6.0 0.00 0.00 0.00 38 1014.2
20260903221727 69 204 5.0 7.0 0.00 0.00 0.00 36 1014.3
20260903221220 67 213 6.0 8.0 0.00 0.00 0.00 38 1014.4
20260903220719 69 231 4.0 8.0 0.00 0.00 0.00 37 1014.3
20260903220213 71 217 5.0 9.0 0.00 0.00 0.00 36 1014.3
20260903215707 70 204 12.0 13.0 0.00 0.00 0.00 36 1014.5
20260903215202 71 205 9.0 14.0 0.00 0.00 0.00 37 1014.4
20260903214700 70 225 6.0 6.0 0.00 0.00 0.00 36 1014.5
20260903214156 66 233 2.0 7.0 0.00 0.00 0.00 38 1014.5
20260903213650 66 261 4.0 5.0 0.00 0.00 0.00 40 1014.7
20260903213146 66 237 5.0 5.0 0.00 0.00 0.00 40 1014.7
20260903212642 65 221 8.0 8.0 0.00 0.00 0.00 39 1014.9
20260903212137 65 211 5.0 7.0 0.00 0.00 0.00 40 1014.8
20260903211631 65 203 2.0 8.0 0.00 0.00 0.00 41 1015.0
20260903211129 65 209 5.0 10.0 0.00 0.00 0.00 41 1014.9
20260903210623 66 171 4.0 11.0 0.00 0.00 0.00 38 1014.8
20260903210120 69 209 5.0 15.0 0.00 0.00 0.00 35 1014.9
20260903205618 71 155 6.0 14.0 0.00 0.00 0.00 35 1014.9
20260903205113 70 175 5.0 10.0 0.00 0.00 0.00 39 1014.9
20260903204608 69 213 2.0 10.0 0.00 0.00 0.00 37 1015.0
20260903204104 67 180 3.0 6.0 0.00 0.00 0.00 39 1015.0
20260903203559 64 121 3.0 5.0 0.00 0.00 0.00 40 1015.0
20260903203054 65 157 4.0 5.0 0.00 0.00 0.00 41 1015.1
20260903202549 65 163 6.0 8.0 0.00 0.00 0.00 43 1015.3
20260903202039 64 209 3.0 11.0 0.00 0.00 0.00 42 1015.1
20260903201534 65 172 5.0 11.0 0.00 0.00 0.00 40 1015.3
20260903201033 66 213 5.0 11.0 0.00 0.00 0.00 38 1015.5
20260903200527 68 216 5.0 10.0 0.00 0.00 0.00 37 1015.3
20260903200023 67 210 3.0 11.0 0.00 0.00 0.00 39 1015.4
20260903195518 66 212 5.0 12.0 0.00 0.00 0.00 41 1015.5
20260903195014 69 206 8.0 12.0 0.00 0.00 0.00 40 1015.5
20260903194504 69 180 5.0 13.0 0.00 0.00 0.00 37 1015.5
20260903193958 66 214 6.0 14.0 0.00 0.00 0.00 41 1015.6
20260903193455 66 128 5.0 6.0 0.00 0.00 0.00 43 1015.5
20260903192949 65 212 3.0 5.0 0.00 0.00 0.00 41 1015.7
20260903192447 65 253 3.0 10.0 0.00 0.00 0.00 42 1015.7
20260903191941 64 274 3.0 7.0 0.00 0.00 0.00 42 1015.9
20260903191437 64 232 4.0 13.0 0.00 0.00 0.00 42 1015.9
20260903190936 65 150 4.0 14.0 0.00 0.00 0.00 42 1015.7
20260903190431 64 209 7.0 15.0 0.00 0.00 0.00 43 1015.7
20260903185930 65 214 5.0 12.0 0.00 0.00 0.00 42 1015.7
20260903185426 66 208 9.0 16.0 0.00 0.00 0.00 39 1015.9
20260903184921 64 177 7.0 18.0 0.00 0.00 0.00 41 1015.7
20260903184418 66 221 14.0 16.0 0.00 0.00 0.00 41 1015.7
20260903183918 67 173 5.0 12.0 0.00 0.00 0.00 42 1016.0
20260903183412 65 230 7.0 11.0 0.00 0.00 0.00 41 1015.7
20260903182912 66 220 11.0 14.0 0.00 0.00 0.00 42 1015.7
20260903182411 66 159 6.0 11.0 0.00 0.00 0.00 44 1015.9
20260903181907 64 199 7.0 10.0 0.00 0.00 0.00 42 1016.0
20260903181401 65 226 8.0 13.0 0.00 0.00 0.00 42 1016.0
20260903180900 65 160 8.0 11.0 0.00 0.00 0.00 42 1015.9
20260903180355 64 227 8.0 9.0 0.00 0.00 0.00 43 1016.0
20260903175854 64 146 5.0 16.0 0.00 0.00 0.00 43 1016.1
20260903175349 64 225 13.0 15.0 0.00 0.00 0.00 42 1016.0
20260903174843 63 207 7.0 11.0 0.00 0.00 0.00 41 1016.1
20260903174338 63 191 6.0 15.0 0.00 0.00 0.00 42 1016.2
20260903173833 62 181 4.0 13.0 0.00 0.00 0.00 42 1016.2
20260903173328 62 174 6.0 12.0 0.00 0.00 0.00 44 1016.0
20260903172824 63 168 4.0 13.0 0.00 0.00 0.00 44 1016.1
20260903172318 63 236 2.0 10.0 0.00 0.00 0.00 42 1016.0
20260903171814 62 176 3.0 11.0 0.00 0.00 0.00 42 1016.2
20260903171310 61 168 3.0 15.0 0.00 0.00 0.00 44 1016.5
20260903170809 61 206 5.0 14.0 0.00 0.00 0.00 45 1016.2
20260903170303 61 211 3.0 9.0 0.00 0.00 0.00 43 1016.5
20260903165802 61 211 7.0 8.0 0.00 0.00 0.00 45 1016.6
20260903165257 62 164 11.0 13.0 0.00 0.00 0.00 43 1016.5
20260903164751 62 188 2.0 7.0 0.00 0.00 0.00 43 1016.6
20260903164247 61 196 5.0 12.0 0.00 0.00 0.00 43 1016.5
20260903163746 61 180 2.0 8.0 0.00 0.00 0.00 45 1016.5
20260903163243 59 207 5.0 9.0 0.00 0.00 0.00 45 1016.7
20260903162738 60 229 5.0 8.0 0.00 0.00 0.00 45 1016.5
20260903162234 60 168 2.0 10.0 0.00 0.00 0.00 44 1016.6
20260903161730 61 180 0.0 5.0 0.00 0.00 0.00 44 1016.7
20260903161226 60 161 6.0 7.0 0.00 0.00 0.00 45 1016.5
20260903160721 61 228 4.0 5.0 0.00 0.00 0.00 45 1016.5
20260903160220 60 74 2.0 6.0 0.00 0.00 0.00 45 1016.5
20260903155719 57 126 6.0 6.0 0.00 0.00 0.00 48 1016.5
20260903155214 58 111 0.0 3.0 0.00 0.00 0.00 46 1016.5
20260903154709 58 122 7.0 7.0 0.00 0.00 0.00 47 1016.5
20260903154206 60 197 2.0 5.0 0.00 0.00 0.00 47 1016.4
20260903153701 58 251 3.0 6.0 0.00 0.00 0.00 48 1016.4
20260903153157 59 109 0.0 3.0 0.00 0.00 0.00 46 1016.2
20260903152653 58 157 3.0 4.0 0.00 0.00 0.00 47 1016.4
20260903152149 57 232 3.0 4.0 0.00 0.00 0.00 48 1016.2
20260903151649 57 150 2.0 4.0 0.00 0.00 0.00 51 1016.4
20260903151148 58 125 3.0 5.0 0.00 0.00 0.00 51 1016.4
20260903150643 56 206 0.0 3.0 0.00 0.00 0.00 52 1016.2
20260903150138 55 203 0.0 2.0 0.00 0.00 0.00 53 1016.4
20260903145638 55 216 2.0 3.0 0.00 0.00 0.00 54 1016.2
20260903145133 54 221 2.0 5.0 0.00 0.00 0.00 54 1016.1
20260903144632 55 140 0.0 3.0 0.00 0.00 0.00 54 1016.0
20260903144128 56 203 3.0 5.0 0.00 0.00 0.00 52 1016.1
20260903143624 56 142 3.0 4.0 0.00 0.00 0.00 52 1016.0
20260903143120 55 188 0.0 3.0 0.00 0.00 0.00 56 1016.0
20260903142615 55 99 0.0 2.0 0.00 0.00 0.00 58 1015.9
20260903142112 55 97 1.0 3.0 0.00 0.00 0.00 59 1015.7
20260903141607 55 45 0.0 2.0 0.00 0.00 0.00 60 1015.9
20260903141102 53 36 2.0 2.0 0.00 0.00 0.00 65 1015.9
20260903140558 50 49 0.0 2.0 0.00 0.00 0.00 68 1015.9
20260903140053 50 4 2.0 2.0 0.00 0.00 0.00 68 1015.9
20260903135549 48 135 2.0 2.0 0.00 0.00 0.00 72 1015.9
20260903135049 48 87 4.0 4.0 0.00 0.00 0.00 73 1015.6
20260903134548 48 106 0.0 4.0 0.00 0.00 0.00 70 1015.7
20260903134044 47 102 3.0 4.0 0.00 0.00 0.00 71 1015.6
20260903133541 47 103 2.0 3.0 0.00 0.00 0.00 72 1015.6
20260903133037 47 125 2.0 3.0 0.00 0.00 0.00 72 1015.5
20260903132531 47 112 3.0 3.0 0.00 0.00 0.00 72 1015.5
20260903132027 47 90 0.0 4.0 0.00 0.00 0.00 71 1015.4
20260903131521 46 87 3.0 5.0 0.00 0.00 0.00 72 1015.3
20260903131020 46 105 2.0 4.0 0.00 0.00 0.00 72 1015.3
20260903130515 46 113 0.0 2.0 0.00 0.00 0.00 72 1015.4
20260903130015 46 139 2.0 3.0 0.00 0.00 0.00 72 1015.4
20260903125513 46 114 1.0 2.0 0.00 0.00 0.00 71 1015.3
20260903125008 46 140 0.0 1.0 0.00 0.00 0.00 70 1015.1
20260903124503 46 6 0.0 1.0 0.00 0.00 0.00 69 1015.3
20260903124002 46 95 0.0 3.0 0.00 0.00 0.00 72 1015.3
20260903123457 46 81 0.0 3.0 0.00 0.00 0.00 69 1015.1
20260903122955 46 82 0.0 2.0 0.00 0.00 0.00 69 1015.3
20260903122450 46 66 0.0 1.0 0.00 0.00 0.00 68 1015.5
20260903121949 46 162 0.0 2.0 0.00 0.00 0.00 69 1015.1
20260903121444 46 103 0.0 2.0 0.00 0.00 0.00 71 1015.3
20260903120940 47 102 3.0 4.0 0.00 0.00 0.00 69 1015.1
20260903120439 47 114 0.0 3.0 0.00 0.00 0.00 68 1015.4
20260903115937 46 90 0.0 3.0 0.00 0.00 0.00 70 1015.4
20260903115432 46 102 4.0 4.0 0.00 0.00 0.00 72 1015.3
20260903114927 47 103 3.0 4.0 0.00 0.00 0.00 70 1015.3
20260903114422 46 101 3.0 4.0 0.00 0.00 0.00 69 1015.3
20260903113918 47 100 3.0 5.0 0.00 0.00 0.00 71 1015.1
20260903113414 48 100 4.0 4.0 0.00 0.00 0.00 67 1015.0
20260903112909 48 66 0.0 4.0 0.00 0.00 0.00 66 1015.3